Tracking 32214 objects as of 19-Nov-2025
HD Live streaming from Space Station
objects crossing your sky now

OBJECT K

Track OBJECT K now!
10-day predictions


NORAD ID: 42834
Int'l Code: 2017-042K
Perigee: 547.6 km
Apogee: 561.8 km
Inclination: 97.4 °
Period: 95.6 minutes
Semi major axis: 6925 km
RCS: Unknown
Launch date: July 14, 2017
Source: (TBD)
Launch site: TYURATAM MISSILE AND SPACE COMPLEX (TTMTR)
Your satellite tracking list
Your tracking list is empty




NASA's NSSDC Master Catalog

Two Line Element Set (TLE):
1 42834U 17042K   25323.21830963  .00006815  00000-0  46728-3 0  9992
2 42834  97.3978 127.3781 0010281  65.4128 294.8170 15.06289956455346
Source of the keplerian elements: AFSPC